When you browse on this site, cookies collect data to enhance your experience and personalize the content and advertising you see.
Visit our Privacy Policy to learn more. By continuing to use the site, you agree to this use of cookies and data.
  • In Deutschland
  • Länderverzeichnis
  • Für 7 Tage
  • Wassertemperatur
  • Satellitenkarten
  • Wetterkarte
  • Widgets
  • user-avatar
    Anmelden

    Stündliche Wetter Hobart

    Heute, 22 März, Freitag

    Zeit Temperatur Niederschläge Wind Luftdruck Luftfeuchtigkeit
    00:00 +15°C° 0 mm 1 m/S 752 mmHg 92%
    01:00 +15°C° 0 mm 1 m/S 752 mmHg 93%
    02:00 +14°C° 0 mm 1 m/S 752 mmHg 94%
    03:00 +13°C° 0 mm 0 m/S 752 mmHg 94%
    04:00 +13°C° 0 mm 0 m/S 752 mmHg 92%
    05:00 +13°C° 0 mm 0 m/S 752 mmHg 91%
    06:00 +13°C° 0 mm 0 m/S 752 mmHg 90%
    07:00 +13°C° 0 mm 0 m/S 752 mmHg 89%
    08:00 +14°C° 0.1 mm 0 m/S 752 mmHg 87%
    09:00 +14°C° 0.1 mm 0 m/S 752 mmHg 84%
    10:00 +18°C° 0 mm 1 m/S 752 mmHg 80%
    11:00 +19°C° 0 mm 1 m/S 752 mmHg 77%
    12:00 +20°C° 0 mm 1 m/S 752 mmHg 75%
    13:00 +21°C° 0 mm 1 m/S 751 mmHg 72%
    14:00 +21°C° 0 mm 1 m/S 751 mmHg 72%
    15:00 +21°C° 0 mm 1 m/S 750 mmHg 72%
    16:00 +21°C° 0 mm 1 m/S 750 mmHg 72%
    17:00 +19°C° 0 mm 1 m/S 750 mmHg 79%
    18:00 +17°C° 0 mm 2 m/S 750 mmHg 86%
    19:00 +16°C° 0 mm 2 m/S 750 mmHg 93%
    20:00 +15°C° 0 mm 2 m/S 750 mmHg 94%
    21:00 +15°C° 0 mm 2 m/S 750 mmHg 95%
    22:00 +15°C° 0 mm 2 m/S 749 mmHg 95%
    23:00 +15°C° 0 mm 2 m/S 749 mmHg 95%

    Morgen, 23 März, Samstag

    Zeit Temperatur Niederschläge Wind Luftdruck Luftfeuchtigkeit
    00:00 +15°C° 0 mm 2 m/S 748 mmHg 95%
    01:00 +15°C° 0 mm 2 m/S 748 mmHg 95%
    02:00 +15°C° 0 mm 2 m/S 747 mmHg 94%
    03:00 +15°C° 0 mm 2 m/S 747 mmHg 94%
    04:00 +15°C° 0 mm 2 m/S 746 mmHg 93%
    05:00 +14°C° 0 mm 3 m/S 746 mmHg 92%
    06:00 +14°C° 0 mm 3 m/S 745 mmHg 91%
    07:00 +14°C° 0 mm 3 m/S 745 mmHg 90%
    08:00 +17°C° 0 mm 3 m/S 745 mmHg 80%
    09:00 +19°C° 0 mm 4 m/S 744 mmHg 70%
    10:00 +21°C° 0 mm 4 m/S 743 mmHg 60%
    11:00 +22°C° 0 mm 4 m/S 743 mmHg 55%
    12:00 +23°C° 0 mm 4 m/S 742 mmHg 50%
    13:00 +25°C° 0 mm 5 m/S 741 mmHg 46%
    14:00 +25°C° 0.1 mm 5 m/S 741 mmHg 51%
    15:00 +23°C° 0.1 mm 5 m/S 740 mmHg 56%
    16:00 +23°C° 0.1 mm 5 m/S 739 mmHg 62%
    17:00 +22°C° 0.1 mm 4 m/S 739 mmHg 64%
    18:00 +21°C° 0.1 mm 4 m/S 738 mmHg 67%
    19:00 +20°C° 0.1 mm 4 m/S 738 mmHg 69%
    20:00 +20°C° 0 mm 3 m/S 739 mmHg 72%
    21:00 +19°C° 0 mm 3 m/S 739 mmHg 75%
    22:00 +19°C° 0 mm 2 m/S 739 mmHg 77%
    23:00 +18°C° 0 mm 2 m/S 739 mmHg 79%

    übermorgen, 24 März, Sonntag

    Zeit Temperatur Niederschläge Wind Luftdruck Luftfeuchtigkeit
    00:00 +17°C° 0 mm 2 m/S 740 mmHg 80%
    01:00 +16°C° 0 mm 3 m/S 740 mmHg 81%
    02:00 +16°C° 0 mm 2 m/S 740 mmHg 80%
    03:00 +16°C° 0 mm 2 m/S 740 mmHg 80%
    04:00 +16°C° 0 mm 2 m/S 741 mmHg 79%
    05:00 +16°C° 0.1 mm 2 m/S 741 mmHg 80%
    06:00 +16°C° 0.1 mm 2 m/S 741 mmHg 81%
    07:00 +16°C° 0.1 mm 1 m/S 742 mmHg 82%
    08:00 +18°C° 0 mm 1 m/S 742 mmHg 73%
    09:00 +20°C° 0 mm 1 m/S 742 mmHg 63%
    10:00 +21°C° 0 mm 1 m/S 743 mmHg 53%
    11:00 +21°C° 0 mm 2 m/S 742 mmHg 47%
    12:00 +24°C° 0 mm 2 m/S 742 mmHg 41%
    13:00 +25°C° 0 mm 2 m/S 742 mmHg 35%
    14:00 +26°C° 0 mm 2 m/S 741 mmHg 34%
    15:00 +26°C° 0 mm 3 m/S 740 mmHg 33%
    16:00 +26°C° 0 mm 3 m/S 739 mmHg 32%
    17:00 +24°C° 0 mm 3 m/S 739 mmHg 39%
    18:00 +21°C° 0 mm 2 m/S 738 mmHg 46%
    19:00 +18°C° 0 mm 2 m/S 738 mmHg 53%
    20:00 +18°C° 0 mm 3 m/S 737 mmHg 60%
    21:00 +18°C° 0 mm 4 m/S 736 mmHg 66%
    22:00 +16°C° 0 mm 5 m/S 735 mmHg 72%
    23:00 +17°C° 0 mm 6 m/S 734 mmHg 70%

    25 März, Montag

    Zeit Temperatur Niederschläge Wind Luftdruck Luftfeuchtigkeit
    00:00 +20°C° 0 mm 7 m/S 732 mmHg 67%
    01:00 +21°C° 0 mm 7 m/S 731 mmHg 65%
    02:00 +20°C° 0.5 mm 6 m/S 731 mmHg 70%
    03:00 +19°C° 0.5 mm 5 m/S 731 mmHg 75%
    04:00 +18°C° 0.5 mm 4 m/S 730 mmHg 80%
    05:00 +15°C° 0 mm 5 m/S 730 mmHg 77%
    06:00 +14°C° 0 mm 6 m/S 731 mmHg 74%
    07:00 +12°C° 0 mm 7 m/S 731 mmHg 72%
    08:00 +12°C° 0 mm 8 m/S 731 mmHg 62%
    09:00 +13°C° 0 mm 9 m/S 732 mmHg 53%
    10:00 +13°C° 0 mm 9 m/S 732 mmHg 43%
    11:00 +13°C° 0.1 mm 9 m/S 732 mmHg 43%
    12:00 +13°C° 0.1 mm 9 m/S 732 mmHg 43%
    13:00 +13°C° 0.1 mm 9 m/S 732 mmHg 43%
    14:00 +12°C° 0 mm 9 m/S 732 mmHg 45%
    15:00 +12°C° 0 mm 10 m/S 732 mmHg 47%
    16:00 +11°C° 0 mm 10 m/S 732 mmHg 49%
    17:00 +9°C° 0.1 mm 10 m/S 733 mmHg 53%
    18:00 +10°C° 0.1 mm 9 m/S 733 mmHg 58%
    19:00 +8°C° 0.1 mm 9 m/S 734 mmHg 62%
    20:00 +8°C° 0 mm 9 m/S 735 mmHg 60%
    21:00 +10°C° 0 mm 9 m/S 735 mmHg 58%
    22:00 +10°C° 0 mm 9 m/S 736 mmHg 56%
    23:00 +10°C° 0 mm 9 m/S 736 mmHg 56%

    26 März, Dienstag

    Zeit Temperatur Niederschläge Wind Luftdruck Luftfeuchtigkeit
    00:00 +10°C° 0 mm 9 m/S 737 mmHg 55%
    01:00 +10°C° 0 mm 9 m/S 737 mmHg 55%
    02:00 +9°C° 0 mm 8 m/S 738 mmHg 57%
    03:00 +8°C° 0 mm 7 m/S 739 mmHg 60%
    04:00 +8°C° 0 mm 6 m/S 739 mmHg 62%
    05:00 +8°C° 0.1 mm 6 m/S 740 mmHg 63%
    06:00 +8°C° 0.1 mm 6 m/S 741 mmHg 63%
    07:00 +9°C° 0.1 mm 6 m/S 742 mmHg 64%
    08:00 +9°C° 0.1 mm 7 m/S 743 mmHg 62%
    09:00 +10°C° 0.1 mm 7 m/S 744 mmHg 59%
    10:00 +11°C° 0.1 mm 7 m/S 745 mmHg 56%
    11:00 +11°C° 0 mm 7 m/S 746 mmHg 52%
    12:00 +12°C° 0 mm 7 m/S 746 mmHg 49%
    13:00 +14°C° 0 mm 7 m/S 747 mmHg 45%
    14:00 +14°C° 0 mm 6 m/S 748 mmHg 46%
    15:00 +14°C° 0 mm 6 m/S 748 mmHg 46%
    16:00 +14°C° 0 mm 5 m/S 749 mmHg 47%
    17:00 +13°C° 0 mm 5 m/S 750 mmHg 55%
    18:00 +11°C° 0 mm 4 m/S 751 mmHg 63%
    19:00 +10°C° 0 mm 3 m/S 751 mmHg 70%
    20:00 +9°C° 0 mm 3 m/S 752 mmHg 74%
    21:00 +9°C° 0 mm 2 m/S 753 mmHg 78%
    22:00 +8°C° 0 mm 2 m/S 753 mmHg 83%
    23:00 +8°C° 0 mm 2 m/S 753 mmHg 85%

    27 März, Mittwoch

    Zeit Temperatur Niederschläge Wind Luftdruck Luftfeuchtigkeit
    00:00 +8°C° 0 mm 2 m/S 753 mmHg 87%
    01:00 +8°C° 0 mm 2 m/S 753 mmHg 89%
    02:00 +8°C° 0 mm 2 m/S 753 mmHg 90%
    03:00 +8°C° 0 mm 2 m/S 753 mmHg 91%
    04:00 +8°C° 0 mm 2 m/S 753 mmHg 93%
    05:00 +8°C° 0 mm 2 m/S 754 mmHg 91%
    06:00 +9°C° 0 mm 2 m/S 754 mmHg 90%
    07:00 +9°C° 0 mm 2 m/S 754 mmHg 89%
    08:00 +12°C° 0 mm 2 m/S 754 mmHg 78%
    09:00 +15°C° 0 mm 2 m/S 754 mmHg 67%
    10:00 +17°C° 0 mm 2 m/S 754 mmHg 55%
    11:00 +18°C° 0 mm 2 m/S 754 mmHg 52%
    12:00 +20°C° 0 mm 2 m/S 754 mmHg 49%
    13:00 +21°C° 0 mm 2 m/S 754 mmHg 45%
    14:00 +21°C° 0 mm 2 m/S 753 mmHg 46%
    15:00 +21°C° 0 mm 2 m/S 753 mmHg 46%
    16:00 +22°C° 0 mm 1 m/S 752 mmHg 47%
    17:00 +20°C° 0 mm 1 m/S 752 mmHg 55%
    18:00 +18°C° 0 mm 1 m/S 753 mmHg 62%
    19:00 +15°C° 0 mm 1 m/S 753 mmHg 70%
    20:00 +14°C° 0 mm 1 m/S 753 mmHg 74%
    21:00 +13°C° 0 mm 1 m/S 753 mmHg 78%
    22:00 +12°C° 0 mm 1 m/S 753 mmHg 82%
    23:00 +12°C° 0 mm 1 m/S 752 mmHg 85%
    Mehr zeigen